Location: Garden of he Gods Recreation Area
(37.6010°N, 88.3780°W)
Time: 16:02:16
(UTC-06:00)

ISS - Visible Passes

Search period start: 23 January 2018 00:00
Search period end: 02 February 2018 00:00
Orbit: 402 x 407 km, 51.6° (Epoch: 23 January)

Date Brightness Start Highest point End Pass type
(mag) Time Alt. Az. Time Alt. Az. Time Alt. Az.
23 Jan -2.3 19:02:00 10° SW 19:03:52 31° SSW 19:03:52 31° SSW visible
24 Jan -2.7 18:10:08 10° SSW 18:13:00 29° SE 18:14:09 23° E visible
24 Jan -0.3 19:46:37 10° W 19:46:50 11° W 19:46:50 11° W visible
25 Jan -3.1 18:53:52 10° WSW 18:57:01 47° NW 18:57:01 47° NW visible
26 Jan -3.9 18:01:25 10° SW 18:04:40 83° SE 18:07:07 17° NE visible
26 Jan -0.5 19:39:29 10° WNW 19:39:47 11° WNW 19:39:47 11° WNW visible
27 Jan -1.9 18:46:17 10° W 18:48:56 23° NNW 18:49:47 20° N visible
28 Jan -2.7 17:53:22 10° WSW 17:56:26 38° NW 17:59:31 10° NE visible
29 Jan -1.3 18:39:12 10° NW 18:40:57 14° NNW 18:42:14 11° N visible
30 Jan -1.7 17:45:50 10° WNW 17:48:19 20° NNW 17:50:48 10° NNE visible
